FYI, Visibility overcast are wrong in low VV storms.


#1

Great service, thanks

Visibility is wrong (i.e. 99999 see also <1) since it is less than 1 mile.

Also Overcast is missing during big storms when very low Vertical Vis.

CYUL METAR
Observation Flight
Rules Wind Overcast Visibility Temp Dew Point Rel.
Humid. Pressure Other
Date Time Dir. Speed Type Height (ft) (sm) C F C F
16-Dec 05:45PM LIFR 50 19kts <1 0 32 0 32 0% 0.00
16-Dec 04:53PM LIFR 40 21kts 99999 0 32 0 32 0% 0.00
16-Dec 04:00PM LIFR 40 25kts 99999 -12 10 -14 6 84% 29.47
16-Dec 03:43PM LIFR 40 27kts 99999 0 32 0 32 0% 0.00
16-Dec 03:14PM LIFR 40 22kts 99999 0 32 0 32 0% 0.00
16-Dec 03:00PM LIFR 40 20kts 99999 -12 10 -13 8 92% 29.50
16-Dec 01:46PM LIFR 40 23kts 99999 0 32 0 32 0% 0.00
16-Dec 01:16PM LIFR 40 25kts 99999 0 32 0 32 0% 0.00
16-Dec 01:00PM LIFR 40 22kts 99999 -12 10 -13 8 92% 29.59
16-Dec 12:00PM LIFR 50 21kts 99999 -12 10 -13 8 92% 29.67
16-Dec 11:43AM LIFR 50 19kts 99999 0 32 0 32 0% 0.00
16-Dec 11:34AM LIFR 50 22kts 99999 0 32 0 32 0% 0.00
16-Dec 11:00AM LIFR 50 20kts 99999 -12 10 -13 8 92% 29.77
16-Dec 10:48AM LIFR 50 23kts 99999 0 32 0 32 0% 0.00
16-Dec 10:38AM LIFR 50 22kts 99999 0 32 0 32 0% 0.00
16-Dec 10:00AM LIFR 50 22kts 99999 -12 10 -14 6 84% 29.85
16-Dec 09:15AM LIFR 50 17kts 99999 0 32 0 32 0% 0.00
16-Dec 09:00AM LIFR 50 19kts Overcast 1600 99999 -12 10 -14 6 84% 29.94
16-Dec 08:53AM LIFR 60 17kts Overcast 2000 99999 0 32 0 32 0% 0.00
16-Dec 08:13AM LIFR 50 17kts Overcast 1700 99999 0 32 0 32 0% 0.00
16-Dec 08:00AM LIFR 50 16kts Overcast 1700 99999 -13 8 -16 3 78% 30.01
16-Dec 07:47AM IFR 50 16kts Overcast 2000 1.00 0 32 0 32 0% 0.00
16-Dec 07:00AM LIFR 50 17kts Overcast 2200 1.00 -15 5 -17 1 84% 30.08
16-Dec 06:00AM LIFR 50 14kts Overcast 2500 1.00 -15 5 -18 0 77% 30.14
CYUL TAF

.